Погода в Нагорном

Россия / Ярославская область     57°33′38″N   39°50′10″E
темп.,
°C
ветер,
м/с
пор.,
м/с
влажн.,
%
обл.,
%
осадки,
мм/ч
давл.,
гПа
погр.,
м
11 мая, вт
вт1100:00+6св22735 0.0 102810
03:00+4св22755 0.0 102917
06:00+6всв257833 0.0 1030120
09:00+12всв456116 0.0 1030511
12:00+16всв45505 0.0 1029874
15:00+18в45451 0.0 1028986
18:00+17в35602 0.0 1027237
21:00+11в33711 0.0 102832
12 мая, ср
ср1200:00+10вюв22783 0.0 102819
03:00+9вюв22870 0.0 102811
06:00+11всв24883 0.0 102898
09:00+17всв357590 0.0 1028398
12:00+21всв566435 0.0 1026891
15:00+23в69575 0.0 10241632
18:00+21в7126715 0.8 1023676
21:00+15юв51475100 1.7 1023386
13 мая, чт
чт1300:00+14юв41188100 0.0 1023473
03:00+12вюв389753 0.0 1023232
06:00+13вюв379593 0.0 1023215
09:00+17юв577876 0.0 1023828
12:00+18вюв477372 0.0 1021780
15:00+20вюв710659 0.8 10171166
18:00+17юв81474100 0.9 10161114
21:00+14юв4997100 2.9 1016558
14 мая, пт
пт1400:00+12ю23976 1.4 101658
03:00+10ю3696100 1.4 1018132
06:00+12ю38959 0.0 1018273
09:00+16ююз477171 0.0 1018701
12:00+18ююз5761100 0.0 10181151
15:00+20ююз466435 0.1 10181286
18:00+18ююв3680100 1.9 1016233
21:00+15ю2293100 5.3 101632
15 мая, сб
сб1500:00+14вюв379797 10.1 1014178
03:00+14вюв3797100 10.4 1013178
06:00+16ююв399486 0.1 1012253
09:00+19ю51185100 0.1 1012555
12:00+22ю4874100 2.0 1011595
15:00+23ю576526 3.3 10091338
18:00+17ю81388100 2.2 1009639
21:00+13ю613904 2.4 1009378